sat.trackr.live / text

‹ back to catalog

STARLINK-30383

NORAD 57773 · 2023-134C

PAYLOAD ACTIVE UNKNOWN

§ Identity

Operator
Country
US
Launch date
2023-09-04
Launch site
AFETR
Launch vehicle
Mass (kg)
RCS (m²)

Purposes: comms

External: N2YO · Heavens-Above · Gunter

§ Orbital elements

Epoch: 2026-09-20T11:53:23.561376Z

Period
94.27 min
Inclination
43.0042°
Eccentricity
0.0001495
Mean motion
15.27579156 rev/d
Perigee alt
482.0 km
Apogee alt
484.1 km
Semi-major
6,861.2 km
B*
2.9083e-5
RAAN
177.4159°
Arg perigee
271.5391°
Mean anomaly
88.5289°
Rev number
16,926

§ Raw data

STARLINK-303831 57773U 23134C   26263.49541159  .00000538  00000+0  29083-4 0  99902 57773  43.0042 177.4159 0001495 271.5391  88.5289 15.27579156169267

JSON: /api/v1/satellites/57773 · /tle

For live sub-satellite position, see the globe view (requires WebGL).

§ Visibility from observer

Set your observer location to see the next 7 days of passes ≥ 10°. The values pass through the URL so the page stays shareable.

No JS? Fill the form by hand. The geolocation button needs JavaScript.